contact:dominique.lefevre@mio.osupytheas.fr, maurice.libes@osupytheas.fr, didier.mallarino@osupytheas.fr
Project:EMSO http://www.emso-fr.org/EMSO-France
Depth: 2436.0 m
Title:EMSO Ligure Ouest : Data MII capteur CSTAR
DateTime,Latitude,Longitude,Instrument_Serial,Reference_Counts,Signal_Counts,Corrected_Signal_raw_counts,Calculated_Beam_c_inverse_meters,Internal_thermistor_counts
DateTime,Latitude,Longitude,Instrument_Serial,Reference_Counts,Signal_Counts,Corrected_Signal_raw_counts,Calculated_Beam_c_inverse_meters,Internal_thermistor_counts
2020-10-02T00:01:26,42.805,6.029,CST-1368DR,5949,8324,15089,0.137,551
2020-10-02T00:04:27,42.805,6.029,CST-1368DR,5949,8325,15091,0.137,551
2020-10-02T00:07:29,42.805,6.029,CST-1368DR,5949,8324,15090,0.137,551
2020-10-02T00:10:31,42.805,6.029,CST-1368DR,5948,8323,15090,0.137,551
2020-10-02T00:13:32,42.805,6.029,CST-1368DR,5948,8325,15093,0.136,551
2020-10-02T00:16:34,42.805,6.029,CST-1368DR,5948,8325,15093,0.136,551
2020-10-02T00:19:35,42.805,6.029,CST-1368DR,5948,8325,15093,0.136,551
2020-10-02T00:22:37,42.805,6.029,CST-1368DR,5948,8323,15090,0.137,551
2020-10-02T00:25:38,42.805,6.029,CST-1368DR,5948,8324,15092,0.137,551
2020-10-02T00:28:40,42.805,6.029,CST-1368DR,5948,8324,15092,0.137,551
2020-10-02T00:31:42,42.805,6.029,CST-1368DR,5948,8324,15091,0.137,551
2020-10-02T00:34:43,42.805,6.029,CST-1368DR,5948,8324,15092,0.137,551
2020-10-02T00:37:45,42.805,6.029,CST-1368DR,5948,8325,15093,0.136,550
2020-10-02T00:40:46,42.805,6.029,CST-1368DR,5948,8324,15092,0.137,551
2020-10-02T00:43:48,42.805,6.029,CST-1368DR,5948,8325,15093,0.136,551
2020-10-02T00:46:50,42.805,6.029,CST-1368DR,5948,8324,15092,0.137,551
2020-10-02T00:49:51,42.805,6.029,CST-1368DR,5948,8324,15092,0.137,551
2020-10-02T00:52:53,42.805,6.029,CST-1368DR,5948,8324,15092,0.137,551
2020-10-02T00:55:54,42.805,6.029,CST-1368DR,5948,8324,15091,0.137,551
2020-10-02T00:58:56,42.805,6.029,CST-1368DR,5948,8324,15092,0.137,551
2020-10-02T01:01:57,42.805,6.029,CST-1368DR,5948,8324,15092,0.137,551
2020-10-02T01:04:59,42.805,6.029,CST-1368DR,5948,8324,15092,0.137,551
2020-10-02T01:08:01,42.805,6.029,CST-1368DR,5948,8323,15090,0.137,551
2020-10-02T01:11:02,42.805,6.029,CST-1368DR,5948,8324,15092,0.137,550
2020-10-02T01:14:04,42.805,6.029,CST-1368DR,5948,8325,15093,0.136,551
2020-10-02T01:17:05,42.805,6.029,CST-1368DR,5948,8324,15091,0.137,551
2020-10-02T01:20:07,42.805,6.029,CST-1368DR,5948,8324,15092,0.137,551
2020-10-02T01:23:08,42.805,6.029,CST-1368DR,5948,8323,15090,0.137,551
2020-10-02T01:26:10,42.805,6.029,CST-1368DR,5948,8323,15090,0.137,551
2020-10-02T01:29:12,42.805,6.029,CST-1368DR,5948,8324,15091,0.137,551
2020-10-02T01:32:13,42.805,6.029,CST-1368DR,5948,8324,15091,0.137,551
2020-10-02T01:35:15,42.805,6.029,CST-1368DR,5948,8324,15092,0.137,551
2020-10-02T01:38:16,42.805,6.029,CST-1368DR,5948,8323,15089,0.137,551
2020-10-02T01:41:18,42.805,6.029,CST-1368DR,5948,8323,15090,0.137,551
2020-10-02T01:44:20,42.805,6.029,CST-1368DR,5947,8323,15092,0.137,551
2020-10-02T01:47:21,42.805,6.029,CST-1368DR,5947,8323,15092,0.137,551
2020-10-02T01:50:23,42.805,6.029,CST-1368DR,5947,8324,15093,0.136,551
2020-10-02T01:53:24,42.805,6.029,CST-1368DR,5947,8323,15091,0.137,551
2020-10-02T01:56:26,42.805,6.029,CST-1368DR,5947,8324,15094,0.136,551
2020-10-02T01:59:27,42.805,6.029,CST-1368DR,5947,8323,15093,0.136,551
2020-10-02T02:02:29,42.805,6.029,CST-1368DR,5947,8323,15093,0.136,551
2020-10-02T02:05:31,42.805,6.029,CST-1368DR,5947,8324,15093,0.136,551
2020-10-02T02:08:32,42.805,6.029,CST-1368DR,5947,8323,15092,0.137,550
2020-10-02T02:11:34,42.805,6.029,CST-1368DR,5947,8323,15093,0.136,551
2020-10-02T02:14:35,42.805,6.029,CST-1368DR,5947,8323,15092,0.137,551
2020-10-02T02:17:37,42.805,6.029,CST-1368DR,5947,8323,15092,0.137,551
2020-10-02T02:20:39,42.805,6.029,CST-1368DR,5947,8324,15093,0.136,551
2020-10-02T02:23:40,42.805,6.029,CST-1368DR,5947,8323,15092,0.137,551
2020-10-02T02:26:42,42.805,6.029,CST-1368DR,5947,8324,15093,0.136,551
2020-10-02T02:29:43,42.805,6.029,CST-1368DR,5947,8323,15093,0.136,551
2020-10-02T02:32:45,42.805,6.029,CST-1368DR,5947,8323,15092,0.137,551
2020-10-02T02:35:46,42.805,6.029,CST-1368DR,5947,8323,15092,0.137,551
2020-10-02T02:38:48,42.805,6.029,CST-1368DR,5947,8323,15093,0.136,551
2020-10-02T02:41:50,42.805,6.029,CST-1368DR,5947,8323,15092,0.137,551
2020-10-02T02:44:51,42.805,6.029,CST-1368DR,5947,8322,15090,0.137,551
2020-10-02T02:47:53,42.805,6.029,CST-1368DR,5947,8323,15093,0.136,551
2020-10-02T02:50:54,42.805,6.029,CST-1368DR,5947,8323,15091,0.137,551
2020-10-02T02:53:56,42.805,6.029,CST-1368DR,5947,8323,15092,0.137,551
2020-10-02T02:56:57,42.805,6.029,CST-1368DR,5947,8323,15092,0.137,551
2020-10-02T02:59:59,42.805,6.029,CST-1368DR,5947,8323,15092,0.137,551
2020-10-02T03:03:01,42.805,6.029,CST-1368DR,5947,8323,15093,0.136,551
2020-10-02T03:06:02,42.805,6.029,CST-1368DR,5947,8323,15093,0.136,551
2020-10-02T03:09:04,42.805,6.029,CST-1368DR,5947,8323,15091,0.137,551
2020-10-02T03:12:05,42.805,6.029,CST-1368DR,5947,8323,15092,0.137,551
2020-10-02T03:15:07,42.805,6.029,CST-1368DR,5947,8322,15091,0.137,551
2020-10-02T03:18:09,42.805,6.029,CST-1368DR,5947,8323,15092,0.137,551
2020-10-02T03:21:10,42.805,6.029,CST-1368DR,5947,8323,15092,0.137,551
2020-10-02T03:24:12,42.805,6.029,CST-1368DR,5947,8322,15090,0.137,551
2020-10-02T03:27:13,42.805,6.029,CST-1368DR,5947,8322,15091,0.137,551
2020-10-02T03:30:15,42.805,6.029,CST-1368DR,5947,8322,15090,0.137,551
2020-10-02T03:33:16,42.805,6.029,CST-1368DR,5947,8322,15091,0.137,551
2020-10-02T03:36:18,42.805,6.029,CST-1368DR,5947,8322,15091,0.137,550
2020-10-02T03:39:20,42.805,6.029,CST-1368DR,5947,8322,15090,0.137,550
2020-10-02T03:42:21,42.805,6.029,CST-1368DR,5947,8322,15090,0.137,551
2020-10-02T03:45:23,42.805,6.029,CST-1368DR,5947,8322,15090,0.137,551
2020-10-02T03:48:24,42.805,6.029,CST-1368DR,5946,8319,15087,0.138,551
2020-10-02T03:51:26,42.805,6.029,CST-1368DR,5947,8322,15090,0.137,551
2020-10-02T03:54:28,42.805,6.029,CST-1368DR,5946,8322,15093,0.136,550
2020-10-02T03:57:29,42.805,6.029,CST-1368DR,5946,8322,15092,0.137,551
2020-10-02T04:00:31,42.805,6.029,CST-1368DR,5946,8322,15092,0.137,551
2020-10-02T04:03:32,42.805,6.029,CST-1368DR,5946,8322,15092,0.137,551
2020-10-02T04:06:34,42.805,6.029,CST-1368DR,5946,8322,15092,0.137,551
2020-10-02T04:09:35,42.805,6.029,CST-1368DR,5946,8320,15090,0.137,551
2020-10-02T04:12:37,42.805,6.029,CST-1368DR,5946,8321,15091,0.137,551
2020-10-02T04:15:39,42.805,6.029,CST-1368DR,5946,8321,15091,0.137,551
2020-10-02T04:18:40,42.805,6.029,CST-1368DR,5946,8321,15092,0.137,551
2020-10-02T04:21:42,42.805,6.029,CST-1368DR,5946,8321,15092,0.137,550
2020-10-02T04:24:43,42.805,6.029,CST-1368DR,5946,8321,15092,0.137,551
2020-10-02T04:27:45,42.805,6.029,CST-1368DR,5946,8321,15091,0.137,551
2020-10-02T04:30:46,42.805,6.029,CST-1368DR,5946,8322,15093,0.136,551
2020-10-02T04:33:48,42.805,6.029,CST-1368DR,5946,8321,15091,0.137,551
2020-10-02T04:36:50,42.805,6.029,CST-1368DR,5946,8322,15093,0.136,551
2020-10-02T04:39:51,42.805,6.029,CST-1368DR,5946,8322,15092,0.137,551
2020-10-02T04:42:53,42.805,6.029,CST-1368DR,5946,8318,15085,0.138,551
2020-10-02T04:45:54,42.805,6.029,CST-1368DR,5946,8321,15091,0.137,551
2020-10-02T04:48:56,42.805,6.029,CST-1368DR,5946,8321,15091,0.137,550
2020-10-02T04:51:58,42.805,6.029,CST-1368DR,5946,8321,15092,0.137,551
2020-10-02T04:54:59,42.805,6.029,CST-1368DR,5946,8321,15091,0.137,551
2020-10-02T04:58:01,42.805,6.029,CST-1368DR,5946,8321,15091,0.137,551
2020-10-02T05:01:02,42.805,6.029,CST-1368DR,5946,8321,15092,0.137,551
2020-10-02T05:04:04,42.805,6.029,CST-1368DR,5946,8320,15088,0.138,551
2020-10-02T05:07:05,42.805,6.029,CST-1368DR,5946,8320,15089,0.137,551
2020-10-02T05:10:07,42.805,6.029,CST-1368DR,5946,8320,15088,0.138,551
2020-10-02T05:13:09,42.805,6.029,CST-1368DR,5946,8320,15089,0.137,551
2020-10-02T05:16:10,42.805,6.029,CST-1368DR,5946,8321,15090,0.137,550
2020-10-02T05:19:12,42.805,6.029,CST-1368DR,5946,8321,15091,0.137,551
2020-10-02T05:22:13,42.805,6.029,CST-1368DR,5946,8320,15088,0.138,551
2020-10-02T05:25:15,42.805,6.029,CST-1368DR,5946,8321,15091,0.137,551
2020-10-02T05:28:16,42.805,6.029,CST-1368DR,5946,8320,15090,0.137,551
2020-10-02T05:31:18,42.805,6.029,CST-1368DR,5946,8320,15088,0.138,551
2020-10-02T05:34:20,42.805,6.029,CST-1368DR,5946,8321,15090,0.137,551
2020-10-02T05:37:21,42.805,6.029,CST-1368DR,5946,8320,15090,0.137,551
2020-10-02T05:40:23,42.805,6.029,CST-1368DR,5945,8320,15092,0.137,551
2020-10-02T05:43:24,42.805,6.029,CST-1368DR,5946,8321,15090,0.137,551
2020-10-02T05:46:26,42.805,6.029,CST-1368DR,5945,8320,15091,0.137,551
2020-10-02T05:49:28,42.805,6.029,CST-1368DR,5946,8320,15089,0.137,551
2020-10-02T05:52:29,42.805,6.029,CST-1368DR,5945,8320,15092,0.137,551
2020-10-02T05:55:31,42.805,6.029,CST-1368DR,5945,8320,15092,0.137,551
2020-10-02T05:58:32,42.805,6.029,CST-1368DR,5945,8320,15092,0.137,551
2020-10-02T06:01:34,42.805,6.029,CST-1368DR,5945,8320,15092,0.137,551
2020-10-02T06:04:35,42.805,6.029,CST-1368DR,5945,8320,15092,0.137,551
2020-10-02T06:07:37,42.805,6.029,CST-1368DR,5945,8319,15090,0.137,551
2020-10-02T06:10:39,42.805,6.029,CST-1368DR,5945,8320,15092,0.137,551
2020-10-02T06:13:40,42.805,6.029,CST-1368DR,5945,8321,15093,0.136,551
2020-10-02T06:16:42,42.805,6.029,CST-1368DR,5945,8320,15092,0.137,551
2020-10-02T06:19:43,42.805,6.029,CST-1368DR,5945,8321,15093,0.136,551
2020-10-02T06:22:45,42.805,6.029,CST-1368DR,5945,8319,15090,0.137,551
2020-10-02T06:25:47,42.805,6.029,CST-1368DR,5945,8319,15090,0.137,550
2020-10-02T06:28:48,42.805,6.029,CST-1368DR,5945,8320,15091,0.137,551
2020-10-02T06:31:50,42.805,6.029,CST-1368DR,5945,8320,15091,0.137,551
2020-10-02T06:34:51,42.805,6.029,CST-1368DR,5945,8320,15091,0.137,551
2020-10-02T06:37:53,42.805,6.029,CST-1368DR,5945,8321,15093,0.136,551
2020-10-02T06:40:54,42.805,6.029,CST-1368DR,5945,8320,15092,0.137,551
2020-10-02T06:43:56,42.805,6.029,CST-1368DR,5945,8320,15091,0.137,551
2020-10-02T06:46:58,42.805,6.029,CST-1368DR,5945,8320,15092,0.137,551
2020-10-02T06:49:59,42.805,6.029,CST-1368DR,5945,8318,15088,0.138,551
2020-10-02T06:53:01,42.805,6.029,CST-1368DR,5945,8320,15092,0.137,551
2020-10-02T06:56:02,42.805,6.029,CST-1368DR,5945,8321,15093,0.136,551
2020-10-02T06:59:04,42.805,6.029,CST-1368DR,5945,8320,15092,0.137,551
2020-10-02T07:02:06,42.805,6.029,CST-1368DR,5945,8320,15091,0.137,551
2020-10-02T07:05:07,42.805,6.029,CST-1368DR,5945,8320,15092,0.137,551
2020-10-02T07:08:09,42.805,6.029,CST-1368DR,5945,8319,15090,0.137,551
2020-10-02T07:11:10,42.805,6.029,CST-1368DR,5945,8321,15093,0.136,551
2020-10-02T07:14:12,42.805,6.029,CST-1368DR,5945,8320,15091,0.137,551
2020-10-02T07:17:13,42.805,6.029,CST-1368DR,5945,8320,15092,0.137,551
2020-10-02T07:20:15,42.805,6.029,CST-1368DR,5945,8320,15091,0.137,550
2020-10-02T07:23:17,42.805,6.029,CST-1368DR,5945,8320,15092,0.137,551
2020-10-02T07:26:18,42.805,6.029,CST-1368DR,5945,8319,15090,0.137,551
2020-10-02T07:29:20,42.805,6.029,CST-1368DR,5945,8319,15089,0.137,551
2020-10-02T07:32:21,42.805,6.029,CST-1368DR,5945,8320,15091,0.137,551
2020-10-02T07:35:23,42.805,6.029,CST-1368DR,5945,8320,15091,0.137,551
2020-10-02T07:38:24,42.805,6.029,CST-1368DR,5945,8319,15090,0.137,551
2020-10-02T07:41:26,42.805,6.029,CST-1368DR,5945,8320,15091,0.137,551
2020-10-02T07:44:28,42.805,6.029,CST-1368DR,5945,8319,15089,0.137,551
2020-10-02T07:47:29,42.805,6.029,CST-1368DR,5945,8319,15090,0.137,551
2020-10-02T07:50:31,42.805,6.029,CST-1368DR,5945,8319,15090,0.137,551
2020-10-02T07:53:32,42.805,6.029,CST-1368DR,5945,8318,15089,0.137,550
2020-10-02T07:56:34,42.805,6.029,CST-1368DR,5945,8319,15090,0.137,551
2020-10-02T07:59:36,42.805,6.029,CST-1368DR,5945,8319,15090,0.137,551
2020-10-02T08:02:37,42.805,6.029,CST-1368DR,5944,8318,15090,0.137,551
2020-10-02T08:05:39,42.805,6.029,CST-1368DR,5945,8316,15084,0.139,551
2020-10-02T08:08:40,42.805,6.029,CST-1368DR,5944,8319,15091,0.137,551
2020-10-02T08:11:42,42.805,6.029,CST-1368DR,5944,8318,15090,0.137,551
2020-10-02T08:14:43,42.805,6.029,CST-1368DR,5944,8319,15092,0.137,551
2020-10-02T08:17:45,42.805,6.029,CST-1368DR,5944,8318,15091,0.137,551
2020-10-02T08:20:47,42.805,6.029,CST-1368DR,5944,8320,15093,0.136,551
2020-10-02T08:23:48,42.805,6.029,CST-1368DR,5944,8319,15092,0.137,551
2020-10-02T08:26:50,42.805,6.029,CST-1368DR,5944,8319,15092,0.137,551
2020-10-02T08:29:51,42.805,6.029,CST-1368DR,5944,8318,15091,0.137,551
2020-10-02T08:32:53,42.805,6.029,CST-1368DR,5944,8319,15093,0.136,551
2020-10-02T08:35:54,42.805,6.029,CST-1368DR,5944,8319,15093,0.136,551
2020-10-02T08:38:56,42.805,6.029,CST-1368DR,5944,8318,15091,0.137,551
2020-10-02T08:41:58,42.805,6.029,CST-1368DR,5944,8320,15093,0.136,551
2020-10-02T08:44:59,42.805,6.029,CST-1368DR,5944,8319,15091,0.137,551
2020-10-02T08:48:01,42.805,6.029,CST-1368DR,5944,8319,15093,0.136,551
2020-10-02T08:51:02,42.805,6.029,CST-1368DR,5944,8318,15090,0.137,551
2020-10-02T08:54:04,42.805,6.029,CST-1368DR,5944,8318,15090,0.137,551
2020-10-02T08:57:06,42.805,6.029,CST-1368DR,5944,8318,15090,0.137,551
2020-10-02T09:00:07,42.805,6.029,CST-1368DR,5944,8318,15090,0.137,551
2020-10-02T09:03:09,42.805,6.029,CST-1368DR,5944,8318,15090,0.137,551
2020-10-02T09:06:10,42.805,6.029,CST-1368DR,5944,8319,15091,0.137,551
2020-10-02T09:09:12,42.805,6.029,CST-1368DR,5944,8319,15091,0.137,551
2020-10-02T09:12:13,42.805,6.029,CST-1368DR,5944,8318,15090,0.137,551
2020-10-02T09:15:15,42.805,6.029,CST-1368DR,5944,8319,15091,0.137,551
2020-10-02T09:18:17,42.805,6.029,CST-1368DR,5944,8319,15091,0.137,550
2020-10-02T09:21:18,42.805,6.029,CST-1368DR,5944,8315,15085,0.138,551
2020-10-02T09:24:20,42.805,6.029,CST-1368DR,5944,8318,15090,0.137,551
2020-10-02T09:27:21,42.805,6.029,CST-1368DR,5944,8317,15089,0.137,551
2020-10-02T09:30:23,42.805,6.029,CST-1368DR,5944,8318,15091,0.137,551
2020-10-02T09:33:25,42.805,6.029,CST-1368DR,5944,8319,15091,0.137,551
2020-10-02T09:36:26,42.805,6.029,CST-1368DR,5944,8318,15090,0.137,551
2020-10-02T09:39:28,42.805,6.029,CST-1368DR,5944,8317,15088,0.138,551
2020-10-02T09:42:29,42.805,6.029,CST-1368DR,5944,8318,15090,0.137,551
2020-10-02T09:45:31,42.805,6.029,CST-1368DR,5944,8319,15091,0.137,551
2020-10-02T09:48:32,42.805,6.029,CST-1368DR,5944,8318,15090,0.137,551
2020-10-02T09:51:34,42.805,6.029,CST-1368DR,5944,8318,15090,0.137,551
2020-10-02T09:54:36,42.805,6.029,CST-1368DR,5944,8318,15091,0.137,551
2020-10-02T09:57:37,42.805,6.029,CST-1368DR,5944,8318,15090,0.137,551
2020-10-02T10:00:39,42.805,6.029,CST-1368DR,5944,8318,15090,0.137,551
2020-10-02T10:03:40,42.805,6.029,CST-1368DR,5944,8318,15091,0.137,551
2020-10-02T10:06:42,42.805,6.029,CST-1368DR,5944,8318,15090,0.137,551
2020-10-02T10:09:43,42.805,6.029,CST-1368DR,5944,8318,15090,0.137,551
2020-10-02T10:12:45,42.805,6.029,CST-1368DR,5944,8318,15090,0.137,551
2020-10-02T10:15:47,42.805,6.029,CST-1368DR,5944,8317,15088,0.138,551
2020-10-02T10:18:48,42.805,6.029,CST-1368DR,5944,8317,15089,0.137,551
2020-10-02T10:21:50,42.805,6.029,CST-1368DR,5944,8318,15090,0.137,551
2020-10-02T10:24:51,42.805,6.029,CST-1368DR,5944,8317,15089,0.137,551
2020-10-02T10:27:53,42.805,6.029,CST-1368DR,5944,8318,15090,0.137,551
2020-10-02T10:30:55,42.805,6.029,CST-1368DR,5944,8318,15090,0.137,551
2020-10-02T10:33:56,42.805,6.029,CST-1368DR,5944,8318,15090,0.137,551
2020-10-02T10:36:58,42.805,6.029,CST-1368DR,5944,8317,15088,0.138,551
2020-10-02T10:39:59,42.805,6.029,CST-1368DR,5943,8317,15091,0.137,551
2020-10-02T10:43:01,42.805,6.029,CST-1368DR,5943,8318,15092,0.137,551
2020-10-02T10:46:02,42.805,6.029,CST-1368DR,5944,8313,15081,0.139,551
2020-10-02T10:49:04,42.805,6.029,CST-1368DR,5943,8318,15092,0.137,551
2020-10-02T10:52:06,42.805,6.029,CST-1368DR,5943,8317,15090,0.137,551
2020-10-02T10:55:07,42.805,6.029,CST-1368DR,5943,8318,15092,0.137,551
2020-10-02T10:58:09,42.805,6.029,CST-1368DR,5943,8317,15091,0.137,551
2020-10-02T11:01:10,42.805,6.029,CST-1368DR,5943,8316,15090,0.137,551
2020-10-02T11:04:12,42.805,6.029,CST-1368DR,5943,8317,15091,0.137,551
2020-10-02T11:07:14,42.805,6.029,CST-1368DR,5943,8318,15092,0.137,551
2020-10-02T11:10:15,42.805,6.029,CST-1368DR,5943,8318,15092,0.137,551
2020-10-02T11:13:17,42.805,6.029,CST-1368DR,5943,8316,15089,0.137,551
2020-10-02T11:16:18,42.805,6.029,CST-1368DR,5943,8317,15092,0.137,551
2020-10-02T11:19:20,42.805,6.029,CST-1368DR,5943,8317,15091,0.137,551
2020-10-02T11:22:21,42.805,6.029,CST-1368DR,5943,8317,15090,0.137,551
2020-10-02T11:25:23,42.805,6.029,CST-1368DR,5943,8317,15090,0.137,550
2020-10-02T11:28:25,42.805,6.029,CST-1368DR,5943,8318,15092,0.137,551
2020-10-02T11:31:26,42.805,6.029,CST-1368DR,5943,8317,15092,0.137,551
2020-10-02T11:34:28,42.805,6.029,CST-1368DR,5943,8317,15091,0.137,551
2020-10-02T11:37:29,42.805,6.029,CST-1368DR,5943,8317,15092,0.137,551
2020-10-02T11:40:31,42.805,6.029,CST-1368DR,5943,8317,15091,0.137,550
2020-10-02T11:43:32,42.805,6.029,CST-1368DR,5943,8317,15091,0.137,551
2020-10-02T11:46:34,42.805,6.029,CST-1368DR,5943,8318,15092,0.137,551
2020-10-02T11:49:36,42.805,6.029,CST-1368DR,5943,8317,15091,0.137,551
2020-10-02T11:52:37,42.805,6.029,CST-1368DR,5943,8318,15092,0.137,551
2020-10-02T11:55:39,42.805,6.029,CST-1368DR,5943,8316,15089,0.137,551
2020-10-02T11:58:40,42.805,6.029,CST-1368DR,5943,8317,15092,0.137,551
2020-10-02T12:01:42,42.805,6.029,CST-1368DR,5943,8316,15090,0.137,551
2020-10-02T12:04:44,42.805,6.029,CST-1368DR,5943,8318,15092,0.137,551
2020-10-02T12:07:45,42.805,6.029,CST-1368DR,5943,8318,15093,0.136,551
2020-10-02T12:10:47,42.805,6.029,CST-1368DR,5943,8317,15091,0.137,551
2020-10-02T12:13:48,42.805,6.029,CST-1368DR,5943,8317,15091,0.137,551
2020-10-02T12:16:50,42.805,6.029,CST-1368DR,5943,8317,15091,0.137,551
2020-10-02T12:19:51,42.805,6.029,CST-1368DR,5943,8317,15092,0.137,551
2020-10-02T12:22:53,42.805,6.029,CST-1368DR,5943,8316,15088,0.138,551
2020-10-02T12:25:55,42.805,6.029,CST-1368DR,5943,8316,15089,0.137,551
2020-10-02T12:28:56,42.805,6.029,CST-1368DR,5943,8317,15091,0.137,551
2020-10-02T12:31:58,42.805,6.029,CST-1368DR,5943,8318,15092,0.137,551
2020-10-02T12:34:59,42.805,6.029,CST-1368DR,5943,8317,15091,0.137,551
2020-10-02T12:38:01,42.805,6.029,CST-1368DR,5943,8317,15091,0.137,551
2020-10-02T12:41:03,42.805,6.029,CST-1368DR,5943,8317,15091,0.137,551
2020-10-02T12:44:04,42.805,6.029,CST-1368DR,5943,8317,15091,0.137,551
2020-10-02T12:47:06,42.805,6.029,CST-1368DR,5943,8317,15091,0.137,551
2020-10-02T12:50:07,42.805,6.029,CST-1368DR,5943,8317,15090,0.137,551
2020-10-02T12:53:09,42.805,6.029,CST-1368DR,5943,8316,15088,0.138,551
2020-10-02T12:56:10,42.805,6.029,CST-1368DR,5943,8316,15090,0.137,551
2020-10-02T12:59:12,42.805,6.029,CST-1368DR,5943,8316,15089,0.137,551
2020-10-02T13:02:14,42.805,6.029,CST-1368DR,5943,8317,15090,0.137,551
2020-10-02T13:05:15,42.805,6.029,CST-1368DR,5943,8316,15090,0.137,551
2020-10-02T13:08:17,42.805,6.029,CST-1368DR,5943,8317,15092,0.137,551
2020-10-02T13:11:18,42.805,6.029,CST-1368DR,5943,8317,15090,0.137,551
2020-10-02T13:14:20,42.805,6.029,CST-1368DR,5943,8316,15089,0.137,551
2020-10-02T13:17:22,42.805,6.029,CST-1368DR,5942,8315,15090,0.137,551
2020-10-02T13:20:23,42.805,6.029,CST-1368DR,5943,8314,15086,0.138,551
2020-10-02T13:23:25,42.805,6.029,CST-1368DR,5943,8317,15090,0.137,551
2020-10-02T13:26:26,42.805,6.029,CST-1368DR,5942,8316,15092,0.137,551
2020-10-02T13:29:28,42.805,6.029,CST-1368DR,5942,8316,15091,0.137,551
2020-10-02T13:32:29,42.805,6.029,CST-1368DR,5942,8315,15090,0.137,551
2020-10-02T13:35:31,42.805,6.029,CST-1368DR,5942,8317,15093,0.136,551
2020-10-02T13:38:33,42.805,6.029,CST-1368DR,5942,8316,15092,0.137,551
2020-10-02T13:41:34,42.805,6.029,CST-1368DR,5942,8315,15089,0.137,551
2020-10-02T13:44:36,42.805,6.029,CST-1368DR,5942,8316,15092,0.137,551
2020-10-02T13:47:37,42.805,6.029,CST-1368DR,5942,8315,15090,0.137,551
2020-10-02T13:50:39,42.805,6.029,CST-1368DR,5942,8316,15091,0.137,551
2020-10-02T13:53:40,42.805,6.029,CST-1368DR,5942,8314,15088,0.138,551
2020-10-02T13:56:42,42.805,6.029,CST-1368DR,5942,8314,15088,0.138,551
2020-10-02T13:59:44,42.805,6.029,CST-1368DR,5942,8314,15088,0.138,551
2020-10-02T14:02:45,42.805,6.029,CST-1368DR,5942,8314,15088,0.138,551
2020-10-02T14:05:47,42.805,6.029,CST-1368DR,5942,8317,15093,0.136,551
2020-10-02T14:08:48,42.805,6.029,CST-1368DR,5942,8316,15091,0.137,551
2020-10-02T14:11:50,42.805,6.029,CST-1368DR,5942,8315,15090,0.137,551
2020-10-02T14:14:52,42.805,6.029,CST-1368DR,5942,8315,15090,0.137,551
2020-10-02T14:17:53,42.805,6.029,CST-1368DR,5942,8316,15092,0.137,551
2020-10-02T14:20:55,42.805,6.029,CST-1368DR,5942,8316,15091,0.137,551
2020-10-02T14:23:56,42.805,6.029,CST-1368DR,5942,8314,15088,0.138,551
2020-10-02T14:26:58,42.805,6.029,CST-1368DR,5942,8315,15089,0.137,551
2020-10-02T14:29:59,42.805,6.029,CST-1368DR,5942,8315,15090,0.137,551
2020-10-02T14:33:01,42.805,6.029,CST-1368DR,5942,8316,15092,0.137,551
2020-10-02T14:36:03,42.805,6.029,CST-1368DR,5942,8316,15092,0.137,551
2020-10-02T14:39:04,42.805,6.029,CST-1368DR,5942,8314,15088,0.138,551
2020-10-02T14:42:06,42.805,6.029,CST-1368DR,5942,8316,15092,0.137,551
2020-10-02T14:45:07,42.805,6.029,CST-1368DR,5942,8316,15092,0.137,551
2020-10-02T14:48:09,42.805,6.029,CST-1368DR,5942,8315,15090,0.137,551
2020-10-02T14:51:10,42.805,6.029,CST-1368DR,5942,8316,15092,0.137,551
2020-10-02T14:54:12,42.805,6.029,CST-1368DR,5942,8315,15090,0.137,551
2020-10-02T14:57:14,42.805,6.029,CST-1368DR,5942,8317,15093,0.136,551
2020-10-02T15:00:15,42.805,6.029,CST-1368DR,5942,8316,15092,0.137,551
2020-10-02T15:03:17,42.805,6.029,CST-1368DR,5942,8316,15092,0.137,551
2020-10-02T15:06:18,42.805,6.029,CST-1368DR,5942,8313,15086,0.138,551
2020-10-02T15:09:20,42.805,6.029,CST-1368DR,5942,8315,15090,0.137,551
2020-10-02T15:12:22,42.805,6.029,CST-1368DR,5942,8316,15091,0.137,551
2020-10-02T15:15:23,42.805,6.029,CST-1368DR,5942,8311,15082,0.139,551
2020-10-02T15:18:25,42.805,6.029,CST-1368DR,5942,8312,15083,0.139,551
2020-10-02T15:21:26,42.805,6.029,CST-1368DR,5942,8315,15090,0.137,551
2020-10-02T15:24:28,42.805,6.029,CST-1368DR,5941,8314,15090,0.137,551
2020-10-02T15:27:29,42.805,6.029,CST-1368DR,5942,8314,15088,0.138,551
2020-10-02T15:30:31,42.805,6.029,CST-1368DR,5942,8317,15093,0.136,551
2020-10-02T15:33:33,42.805,6.029,CST-1368DR,5942,8314,15088,0.138,551
2020-10-02T15:36:34,42.805,6.029,CST-1368DR,5941,8311,15084,0.139,551
2020-10-02T15:39:36,42.805,6.029,CST-1368DR,5942,8313,15086,0.138,551
2020-10-02T15:42:37,42.805,6.029,CST-1368DR,5941,8315,15091,0.137,551
2020-10-02T15:45:39,42.805,6.029,CST-1368DR,5941,8315,15091,0.137,551
2020-10-02T15:48:41,42.805,6.029,CST-1368DR,5941,8313,15089,0.137,551
2020-10-02T15:51:42,42.805,6.029,CST-1368DR,5941,8316,15094,0.136,551
2020-10-02T15:54:44,42.805,6.029,CST-1368DR,5942,8315,15090,0.137,550
2020-10-02T15:57:45,42.805,6.029,CST-1368DR,5941,8315,15092,0.137,551
2020-10-02T16:00:47,42.805,6.029,CST-1368DR,5941,8316,15094,0.136,551
2020-10-02T16:03:48,42.805,6.029,CST-1368DR,5941,8316,15093,0.136,551
2020-10-02T16:06:50,42.805,6.029,CST-1368DR,5941,8316,15094,0.136,551
2020-10-02T16:09:52,42.805,6.029,CST-1368DR,5941,8316,15094,0.136,551
2020-10-02T16:12:53,42.805,6.029,CST-1368DR,5941,8315,15092,0.137,551
2020-10-02T16:15:55,42.805,6.029,CST-1368DR,5941,8314,15090,0.137,550
2020-10-02T16:18:56,42.805,6.029,CST-1368DR,5941,8316,15094,0.136,551
2020-10-02T16:21:58,42.805,6.029,CST-1368DR,5941,8316,15094,0.136,551
2020-10-02T16:25:00,42.805,6.029,CST-1368DR,5941,8316,15094,0.136,551
2020-10-02T16:28:01,42.805,6.029,CST-1368DR,5941,8316,15094,0.136,551
2020-10-02T16:31:03,42.805,6.029,CST-1368DR,5941,8316,15094,0.136,551
2020-10-02T16:34:04,42.805,6.029,CST-1368DR,5941,8315,15092,0.137,551
2020-10-02T16:37:06,42.805,6.029,CST-1368DR,5941,8316,15094,0.136,551
2020-10-02T16:40:07,42.805,6.029,CST-1368DR,5941,8316,15093,0.136,551
2020-10-02T16:43:09,42.805,6.029,CST-1368DR,5941,8316,15094,0.136,551
2020-10-02T16:46:11,42.805,6.029,CST-1368DR,5941,8315,15092,0.137,551
2020-10-02T16:49:12,42.805,6.029,CST-1368DR,5941,8316,15093,0.136,551
2020-10-02T16:52:14,42.805,6.029,CST-1368DR,5941,8315,15092,0.137,551